FW0304 Weather Reports


Display with metric or nautical units.
time (UTC)temp
F
wind
direction
speed
MPH
gust
MPH
rain 1hr
in
rain 24hr
in
rain mn
in
humidity
%
barometer
mb
20260902164523 94 132 0.0 3.0 0.00 0.00 0.00 54 1019.0
20260902163024 94 350 1.0 3.0 0.00 0.00 0.00 55 1019.4
20260902161507 93 315 0.0 2.0 0.00 0.00 0.00 57 1019.5
20260902160010 93 308 0.0 2.0 0.00 0.00 0.00 60 1019.5
20260902154516 92 332 0.0 2.0 0.00 0.00 0.00 62 1019.6
20260902153024 92 134 1.0 2.0 0.00 0.00 0.00 60 1019.5
20260902151529 90 195 0.0 2.0 0.00 0.00 0.00 65 1019.5
20260902150008 91 346 0.0 2.0 0.00 0.00 0.00 63 1019.4
20260902144512 88 328 0.0 2.0 0.00 0.00 0.00 67 1019.3
20260902143020 87 37 0.0 2.0 0.00 0.00 0.00 69 1019.2
20260902141532 85 25 0.0 2.0 0.00 0.00 0.00 75 1019.2
20260902140029 84 25 0.0 2.0 0.00 0.00 0.00 76 1019.4
20260902134518 81 25 0.0 0.0 0.00 0.00 0.00 80 1019.5
20260902133026 79 25 0.0 2.0 0.00 0.00 0.00 85 1019.4
20260902131524 77 25 0.0 2.0 0.00 0.00 0.00 88 1019.4
20260902130033 76 25 0.0 0.0 0.00 0.00 0.00 89 1019.5
20260902124511 74 25 0.0 1.0 0.00 0.00 0.00 91 1019.4
20260902123015 73 25 0.0 0.0 0.00 0.00 0.00 92 1019.3
20260902121519 72 25 0.0 0.0 0.00 0.00 0.00 93 1019.2
20260902120027 72 25 0.0 0.0 0.00 0.00 0.00 93 1019.0
20260902114529 72 25 0.0 0.0 0.00 0.00 0.00 93 1018.8
20260902113017 72 25 0.0 0.0 0.00 0.00 0.00 93 1018.7
20260902111519 72 25 0.0 0.0 0.00 0.00 0.00 93 1018.4
20260902110024 72 25 0.0 0.0 0.00 0.00 0.00 93 1018.2
20260902104533 72 25 0.0 0.0 0.00 0.00 0.00 93 1018.2
20260902103031 72 25 0.0 0.0 0.00 0.00 0.00 93 1018.1
20260902101512 72 25 0.0 0.0 0.00 0.00 0.00 92 1018.0
20260902100023 73 25 0.0 0.0 0.00 0.00 0.00 92 1018.0
20260902094527 73 25 0.0 0.0 0.00 0.00 0.00 92 1017.9
20260902093029 73 25 0.0 0.0 0.00 0.00 0.00 92 1017.7
20260902091533 73 25 0.0 0.0 0.00 0.00 0.00 91 1017.5
20260902090017 73 25 0.0 0.0 0.00 0.00 0.00 91 1017.5
20260902084531 73 25 0.0 0.0 0.00 0.00 0.00 91 1017.5
20260902083011 74 25 0.0 0.0 0.00 0.00 0.00 91 1017.4
20260902081508 74 25 0.0 1.0 0.00 0.00 0.00 91 1017.4
20260902080014 74 25 0.0 1.0 0.00 0.00 0.00 91 1017.3
20260902074525 74 35 0.0 0.0 0.00 0.00 0.00 91 1017.3
20260902073027 74 35 0.0 0.0 0.00 0.00 0.00 91 1017.1
20260902071512 74 35 0.0 0.0 0.00 0.00 0.00 91 1017.1
20260902070013 75 35 0.0 0.0 0.00 0.00 0.00 90 1017.2
20260902064526 75 35 0.0 0.0 0.00 0.00 0.00 90 1017.2
20260902063052 75 35 0.0 0.0 0.00 0.00 0.00 90 1017.3
20260902061531 75 35 0.0 0.0 0.00 0.00 0.00 90 1017.3
20260902060012 75 35 0.0 0.0 0.00 0.00 0.00 89 1017.4
20260902054519 76 35 0.0 0.0 0.00 0.00 0.00 89 1017.4
20260902053023 76 35 0.0 0.0 0.00 0.00 0.00 88 1017.4
20260902051538 76 35 0.0 0.0 0.00 0.00 0.00 88 1017.5
20260902050034 77 35 0.0 0.0 0.00 0.00 0.00 88 1017.4
20260902044516 77 35 0.0 0.0 0.00 0.00 0.00 88 1017.5
20260902043024 77 35 0.0 0.0 0.00 0.00 0.00 88 1017.4
20260902041541 77 35 0.0 0.0 0.00 0.00 0.00 87 1017.5
20260902040034 78 35 0.0 0.0 0.00 0.00 0.00 86 1017.4
20260902034512 78 35 0.0 0.0 0.00 0.00 0.00 85 1017.5
20260902033018 78 35 0.0 0.0 0.00 0.00 0.00 84 1017.6
20260902031528 79 35 0.0 0.0 0.00 0.00 0.00 84 1017.5
20260902030031 79 35 0.0 0.0 0.00 0.00 0.00 83 1017.6
20260902024534 79 35 0.0 0.0 0.00 0.00 0.00 82 1017.4
20260902023017 80 35 0.0 0.0 0.00 0.00 0.00 82 1017.3
20260902021526 80 35 0.0 0.0 0.00 0.00 0.00 81 1017.1
20260902020032 81 35 0.0 0.0 0.00 0.00 0.00 81 1017.0
20260902014534 81 35 0.0 0.0 0.00 0.00 0.00 80 1016.7
20260902013034 82 35 0.0 0.0 0.00 0.00 0.00 79 1016.6
20260902011524 82 35 0.0 0.0 0.00 0.00 0.00 78 1016.5
20260902010038 83 35 0.0 0.0 0.00 0.00 0.00 76 1016.3
20260902004535 84 35 0.0 0.0 0.00 0.00 0.00 73 1016.4
20260902003110 85 35 0.0 0.0 0.00 0.00 0.00 71 1016.3
20260902001522 86 35 0.0 0.0 0.00 0.00 0.00 70 1016.3
20260902000032 88 35 0.0 0.0 0.00 0.00 0.00 68 1016.3
20260901234530 89 35 0.0 0.0 0.00 0.00 0.00 66 1016.4
20260901233003 91 35 0.0 2.0 0.00 0.00 0.00 59 1016.5
20260901231507 93 34 0.0 2.0 0.00 0.00 0.00 56 1016.5
20260901230008 94 100 0.0 2.0 0.00 0.00 0.00 48 1016.5
20260901224508 94 352 0.0 2.0 0.00 0.00 0.00 47 1016.4
20260901223007 94 101 0.0 2.0 0.00 0.00 0.00 47 1016.5
20260901221503 94 156 0.0 4.0 0.00 0.00 0.00 48 1016.5
20260901220013 95 9 0.0 2.0 0.00 0.00 0.00 45 1016.4
20260901214506 95 97 0.0 3.0 0.00 0.00 0.00 48 1016.5
20260901213008 95 182 0.0 2.0 0.00 0.00 0.00 47 1016.5
20260901211509 95 134 1.0 3.0 0.00 0.00 0.00 48 1016.7
20260901210008 94 34 1.0 2.0 0.00 0.00 0.00 49 1016.8
20260901204512 94 161 0.0 4.0 0.00 0.00 0.00 51 1016.9
20260901203008 94 200 0.0 3.0 0.00 0.00 0.00 50 1017.1
20260901201508 95 150 0.0 3.0 0.00 0.00 0.00 49 1017.3
20260901200010 95 173 0.0 8.0 0.00 0.00 0.00 49 1017.4
20260901194510 95 331 1.0 4.0 0.00 0.00 0.00 47 1017.5
20260901193010 96 139 1.0 4.0 0.00 0.00 0.00 46 1017.7
20260901191511 95 223 0.0 4.0 0.00 0.00 0.00 48 1017.8
20260901190013 95 196 1.0 3.0 0.00 0.00 0.00 47 1018.0
20260901184512 95 96 0.0 3.0 0.00 0.00 0.00 47 1018.1
20260901183011 95 61 0.0 3.0 0.00 0.00 0.00 46 1018.4
20260901181512 94 325 0.0 4.0 0.00 0.00 0.00 51 1018.4
20260901180013 94 68 0.0 3.0 0.00 0.00 0.00 51 1018.8
20260901174511 94 168 0.0 2.0 0.00 0.00 0.00 51 1018.9
20260901173014 92 119 0.0 3.0 0.00 0.00 0.00 55 1019.2
20260901171513 93 203 0.0 3.0 0.00 0.00 0.00 54 1019.3
20260901170016 93 332 1.0 3.0 0.00 0.00 0.00 54 1019.5